Regional Weather Roundup
Issued by NWS

Home | Current Version | Previous Version | Graphics & Text | Print | Product List | Glossary On
Versions: 1 2 3 4 5 6 7 8 9 10 11 12 13 14 15 16 17 18 19 20 21 22 23 24 25 26 27 28 29 30 31 32 33 34 35 36 37 38 39 40 41 42 43 44 45 46 47 48 49 50
000
ASUS43 KOAX 042310
RWRNE

WEATHER ROUNDUP FOR NEBRASKA
NATIONAL WEATHER SERVICE OMAHA NE
600 PM CDT FRI SEP 04 2015

NOTES: SATELLITE DATA IS BEING USED TO AUGMENT CLOUD COVER ABOVE
       12000 FEET.
       "FAIR" INDICATES FEW OR NO CLOUDS BELOW 12,000 FEET WITH NO
       SIGNIFICANT WEATHER AND/OR OBSTRUCTIONS TO VISIBILITY.

  * THESE STATIONS DO NOT REPORT WEATHER SUCH AS RAIN...SNOW OR FOG.

NEZ001>004-019>022-054>056-050000-
NEBRASKA PANHANDLE

CITY           SKY/WX    TMP DP  RH WIND       PRES   REMARKS
SCOTTSBLUFF    MOSUNNY   89  47  23 E9        29.86S
ALLIANCE         N/A     92  40  16 S10       29.86S
CHADRON        PTSUNNY   91  47  21 S10       29.80S
KIMBALL        MOSUNNY   85  40  20 SW9G16    29.91S
SIDNEY         MOSUNNY   92  38  15 S13G22    29.90S
$$

NEZ057>060-069>072-079>082-050000-
SOUTHWEST NEBRASKA

CITY           SKY/WX    TMP DP  RH WIND       PRES   REMARKS
NORTH PLATTE   SUNNY     91  55  29 S9        29.82S
IMPERIAL       MOSUNNY   92  48  22 E5        29.85S
LEXINGTON      SUNNY     93  60  32 S12       29.81S HX  93
MCCOOK         SUNNY     98  55  23 S8        29.80F HX  96
OGALLALA       MOSUNNY   92  48  22 SE6       29.84S
$$

NEZ005>010-023>029-035>040-094-050000-
NORTH CENTRAL NEBRASKA

CITY           SKY/WX    TMP DP  RH WIND       PRES   REMARKS
VALENTINE      MOSUNNY   93  55  27 S8        29.79R HX  91
AINSWORTH      SUNNY     91  62  38 SE7       29.81R HX  91
BROKEN BOW     MOSUNNY   91  62  37 S10       29.82S HX  91
O`NEILL        SUNNY     90  63  40 S16       29.81S HX  91
ORD            MOSUNNY   93  62  35 S18G25    29.79F HX  93
THEDFORD       SUNNY     93  61  34 S10       29.83R HX  92
$$

NEZ041-046>049-061>064-073>077-083>087-050000-
SOUTH CENTRAL NEBRASKA

CITY           SKY/WX    TMP DP  RH WIND       PRES   REMARKS
GRAND ISLAND   MOSUNNY   94  65  38 S14       29.81F HX  96
AURORA         PTSUNNY   91  66  44 S14G21    29.82S HX  93
HASTINGS       SUNNY     94  63  35 S14G24    29.81S HX  95
HEBRON         MOSUNNY   91  62  38 S16G24    29.84S HX  91
HOLDREGE       SUNNY     95  55  25 S13G20    29.81S HX  93
KEARNEY *      SUNNY     95  63  34 S14       29.80S HX  96
YORK           MOSUNNY   90  68  48 S15       29.83F HX  93
$$

NEZ011>018-030>034-042>045-050000-
NORTHEAST NEBRASKA

CITY           SKY/WX    TMP DP  RH WIND       PRES   REMARKS
NORFOLK        MOSUNNY   87  70  56 SE14G23   29.82S HX  92
ALBION         CLOUDY    86  67  53 S12G23    29.81F
BLAIR          MOSUNNY   86  68  54 SE9       29.86S
COLUMBUS *     PTSUNNY   88  70  55 SE6       29.82S HX  92
FREMONT        MOSUNNY   87  68  53 SE8       29.85R HX  91
TEKAMAH        MOSUNNY   86  74  67 SE9       29.84S HX  94
WAYNE          SUNNY     84  73  68 S12       29.84S HX  90
$$

NEZ050>053-065>068-078-088>093-050000-
SOUTHEAST NEBRASKA

CITY           SKY/WX    TMP DP  RH WIND       PRES   REMARKS
LINCOLN        MOSUNNY   90  66  45 S15       29.84S HX  92
OMAHA EPPLEY   PTSUNNY   88  72  58 SE16      29.85F HX  94
BEATRICE       MOSUNNY   89  64  41 S17       29.85F HX  90
FALLS CITY     SUNNY     90  66  45 SE18      29.88F HX  92
NEBRASKA CITY  MOSUNNY   88  60  38 S12G21    29.87F
PLATTSMOUTH    MOSUNNY   86  66  50 SE13G18   29.86F
$$

NEZ044-045-051>053-067-050000-
OMAHA AREA

CITY           SKY/WX    TMP DP  RH WIND       PRES   REMARKS
OMAHA EPPLEY   PTSUNNY   88  72  58 SE16      29.85F HX  94
BLAIR          MOSUNNY   86  68  54 SE9       29.86S
FREMONT        MOSUNNY   87  68  53 SE8       29.85R HX  91
MILLARD        MOSUNNY   88  72  58 SE7       29.85S HX  94
OFFUTT AFB     MOSUNNY   86  71  62 SE12      29.85S HX  91
PLATTSMOUTH    MOSUNNY   86  66  50 SE13G18   29.86F
WAHOO          FAIR      87  71  58 SE9       29.84S HX  93
$$



USA.gov is the U.S. government's official web portal to all federal, state and local government web resources and services.